CPA623 VHHH-VOBL

Flight info

Callsign CPA623
Flight time N/A
Altitude 40000
Route PECAN V10 SIKOU/K0900S1220 A202 ASSAD/K0900F400 A202 VILAO/N0487F400 A202 SAV B460 KRT W1 UBLOD Y20 MALKI W1 BKK M502 LALIT P762 PPB P761 MMV W117 XIVIL XIVIL7E
Aircraft A359/H-SDE2E3GHIJ3J4J5LM1ORWXY/LB1D1

Departure

Time 2026-05-07 11:18
Airport Hong Kong International Airport (VHHH)

Arrival

Time N/A
Airport Kempegowda International Airport Bengaluru (VOBL)
Time Latitude Longitude Altitude Speed Heading
2026-05-07 10:49 22.30925 113.92646 38 ft 0 kts 296°
2026-05-07 11:07 22.30917 113.92664 37 ft 4 kts 296°
2026-05-07 11:08 22.30905 113.92691 36 ft 4 kts 296°
2026-05-07 11:08 22.30896 113.92712 36 ft 4 kts 287°
2026-05-07 11:08 22.30895 113.92738 37 ft 4 kts 240°
2026-05-07 11:08 22.30913 113.92757 36 ft 4 kts 206°
2026-05-07 11:09 22.30936 113.92769 36 ft 4 kts 206°
2026-05-07 11:09 22.30947 113.92775 35 ft 0 kts 206°
2026-05-07 11:12 22.30916 113.92758 36 ft 8 kts 205°
2026-05-07 11:12 22.30857 113.92726 38 ft 11 kts 214°
2026-05-07 11:13 22.30816 113.92645 38 ft 14 kts 250°
2026-05-07 11:13 22.30779 113.92533 38 ft 17 kts 251°
2026-05-07 11:13 22.30736 113.92399 38 ft 20 kts 251°
2026-05-07 11:13 22.30687 113.92246 38 ft 23 kts 250°
2026-05-07 11:14 22.30632 113.92077 38 ft 25 kts 251°
2026-05-07 11:14 22.30573 113.91892 38 ft 27 kts 250°
2026-05-07 11:14 22.30510 113.91695 38 ft 29 kts 251°
2026-05-07 11:14 22.30442 113.91487 38 ft 30 kts 250°
2026-05-07 11:15 22.30372 113.91268 38 ft 31 kts 251°
2026-05-07 11:15 22.30297 113.91038 38 ft 33 kts 251°
2026-05-07 11:15 22.30223 113.90807 38 ft 32 kts 251°
2026-05-07 11:15 22.30151 113.90583 38 ft 33 kts 251°
2026-05-07 11:16 22.30074 113.90346 38 ft 34 kts 250°
2026-05-07 11:16 22.29997 113.90105 38 ft 34 kts 251°
2026-05-07 11:16 22.29930 113.89900 38 ft 17 kts 251°
2026-05-07 11:16 22.29891 113.89779 38 ft 17 kts 248°
2026-05-07 11:17 22.29793 113.89746 38 ft 16 kts 160°
2026-05-07 11:17 22.29681 113.89792 36 ft 19 kts 150°
2026-05-07 11:17 22.29654 113.89911 36 ft 18 kts 71°
2026-05-07 11:17 22.29725 113.90129 36 ft 60 kts 71°
2026-05-07 11:18 22.29935 113.90780 37 ft 122 kts 71°
2026-05-07 11:18 22.30283 113.91826 54 ft 171 kts 73°
2026-05-07 11:18 22.30679 113.93039 712 ft 170 kts 73°
2026-05-07 11:18 22.31068 113.94246 1286 ft 175 kts 73°
2026-05-07 11:19 22.31489 113.95576 1545 ft 199 kts 74°
2026-05-07 11:19 22.31958 113.97062 1884 ft 217 kts 73°
2026-05-07 11:19 22.32460 113.98633 2467 ft 223 kts 72°
2026-05-07 11:19 22.32977 114.00228 3082 ft 226 kts 71°
2026-05-07 11:20 22.33490 114.01840 3754 ft 228 kts 72°
2026-05-07 11:20 22.33798 114.03522 4423 ft 230 kts 88°
2026-05-07 11:20 22.33586 114.05237 5052 ft 233 kts 109°
2026-05-07 11:20 22.32810 114.06772 5632 ft 236 kts 131°
2026-05-07 11:21 22.31566 114.07931 6043 ft 242 kts 150°
2026-05-07 11:21 22.29982 114.08629 6468 ft 253 kts 169°
2026-05-07 11:21 22.28215 114.08805 7023 ft 258 kts 182°
2026-05-07 11:21 22.26360 114.08775 7432 ft 274 kts 183°
2026-05-07 11:22 22.24425 114.08726 8030 ft 281 kts 183°
2026-05-07 11:22 22.22484 114.08689 8777 ft 284 kts 183°
2026-05-07 11:22 22.20499 114.08662 9557 ft 286 kts 183°
2026-05-07 11:22 22.18492 114.08654 10204 ft 294 kts 182°
2026-05-07 11:23 22.16385 114.08659 10491 ft 313 kts 182°
2026-05-07 11:23 22.14144 114.08665 10745 ft 331 kts 182°
2026-05-07 11:23 22.11781 114.08672 11003 ft 348 kts 182°
2026-05-07 11:23 22.09303 114.08681 11247 ft 363 kts 181°
2026-05-07 11:24 22.06740 114.08691 11636 ft 372 kts 181°
2026-05-07 11:24 22.04133 114.08702 12139 ft 377 kts 181°
2026-05-07 11:24 22.01497 114.08715 12669 ft 381 kts 182°
2026-05-07 11:24 21.98833 114.08724 13201 ft 384 kts 182°
2026-05-07 11:25 21.96148 114.08733 13703 ft 388 kts 182°
2026-05-07 11:25 21.93434 114.08742 14164 ft 392 kts 182°
2026-05-07 11:25 21.90699 114.08752 14630 ft 394 kts 182°
2026-05-07 11:25 21.87947 114.08761 15086 ft 397 kts 182°
2026-05-07 11:26 21.85174 114.08771 15533 ft 400 kts 182°
2026-05-07 11:26 21.82383 114.08781 15983 ft 403 kts 182°
2026-05-07 11:26 21.79572 114.08791 16442 ft 405 kts 182°
2026-05-07 11:26 21.76741 114.08801 16874 ft 408 kts 182°
2026-05-07 11:27 21.73892 114.08810 17311 ft 411 kts 182°
2026-05-07 11:27 21.71027 114.08821 17767 ft 413 kts 182°
2026-05-07 11:27 21.68140 114.08831 18179 ft 416 kts 182°
2026-05-07 11:27 21.65238 114.08787 18535 ft 418 kts 186°
2026-05-07 11:28 21.62371 114.08297 18895 ft 418 kts 195°
2026-05-07 11:28 21.59535 114.07577 19247 ft 420 kts 196°
2026-05-07 11:28 21.56690 114.06828 19618 ft 422 kts 196°
2026-05-07 11:28 21.53828 114.06077 19981 ft 425 kts 196°
2026-05-07 11:29 21.50960 114.05328 20339 ft 428 kts 196°
2026-05-07 11:29 21.48045 114.04570 20711 ft 430 kts 196°
2026-05-07 11:29 21.45153 114.03728 21080 ft 431 kts 201°
2026-05-07 11:29 21.42422 114.02424 21453 ft 430 kts 211°
2026-05-07 11:30 21.39835 114.00800 21830 ft 431 kts 214°
2026-05-07 11:30 21.37313 113.99048 22206 ft 433 kts 216°
2026-05-07 11:30 21.34807 113.97231 22586 ft 436 kts 217°
2026-05-07 11:30 21.32295 113.95393 22974 ft 438 kts 217°
2026-05-07 11:31 21.29765 113.93552 23342 ft 441 kts 217°
2026-05-07 11:31 21.27209 113.91711 23665 ft 444 kts 216°
2026-05-07 11:31 21.24628 113.89869 23975 ft 447 kts 216°
2026-05-07 11:31 21.22046 113.88039 24297 ft 449 kts 216°
2026-05-07 11:32 21.16788 113.84333 24979 ft 453 kts 216°
2026-05-07 11:32 21.14185 113.82487 25320 ft 455 kts 217°
2026-05-07 11:32 21.11704 113.80384 25673 ft 455 kts 225°
2026-05-07 11:33 21.09541 113.77919 26044 ft 455 kts 234°
2026-05-07 11:33 21.07790 113.75100 26435 ft 455 kts 243°
2026-05-07 11:33 21.06483 113.72022 26841 ft 455 kts 250°
2026-05-07 11:33 21.05360 113.68842 27231 ft 458 kts 252°
2026-05-07 11:34 21.04312 113.65611 27631 ft 460 kts 252°
2026-05-07 11:34 21.03291 113.62351 27957 ft 464 kts 253°
2026-05-07 11:34 21.02264 113.59061 28319 ft 468 kts 253°
2026-05-07 11:34 21.01223 113.55756 28702 ft 470 kts 252°
2026-05-07 11:35 21.00163 113.52432 29077 ft 473 kts 252°
2026-05-07 11:35 20.99089 113.49099 29434 ft 475 kts 252°
2026-05-07 11:35 20.98003 113.45749 29783 ft 478 kts 252°
2026-05-07 11:35 20.96906 113.42379 30084 ft 481 kts 252°
2026-05-07 11:36 20.95801 113.38989 30366 ft 483 kts 252°
2026-05-07 11:36 20.94691 113.35590 30636 ft 486 kts 252°
2026-05-07 11:36 20.93575 113.32172 30906 ft 488 kts 252°
2026-05-07 11:36 20.92454 113.28742 31166 ft 490 kts 252°
2026-05-07 11:37 20.91328 113.25294 31424 ft 492 kts 252°
2026-05-07 11:37 20.90196 113.21833 31666 ft 494 kts 252°
2026-05-07 11:37 20.89061 113.18362 31935 ft 495 kts 252°
2026-05-07 11:37 20.87925 113.14893 32312 ft 493 kts 252°
2026-05-07 11:38 20.86791 113.11434 32676 ft 493 kts 252°
2026-05-07 11:38 20.85660 113.07985 33073 ft 490 kts 251°
2026-05-07 11:38 20.84534 113.04554 33494 ft 488 kts 251°
2026-05-07 11:38 20.83411 113.01132 33835 ft 487 kts 251°
2026-05-07 11:39 20.82288 112.97717 34082 ft 488 kts 252°
2026-05-07 11:39 20.81162 112.94292 34318 ft 488 kts 252°
2026-05-07 11:39 20.80038 112.90877 34615 ft 487 kts 252°
2026-05-07 11:39 20.78916 112.87470 34917 ft 485 kts 252°
2026-05-07 11:40 20.77795 112.84070 35217 ft 484 kts 252°
2026-05-07 11:40 20.76677 112.80679 35498 ft 483 kts 252°
2026-05-07 11:40 20.75560 112.77298 35771 ft 482 kts 252°
2026-05-07 11:40 20.74447 112.73926 36080 ft 481 kts 252°
2026-05-07 11:41 20.73334 112.70561 36329 ft 480 kts 252°
2026-05-07 11:41 20.72223 112.67201 36568 ft 480 kts 252°
2026-05-07 11:41 20.71110 112.63841 36802 ft 479 kts 252°
2026-05-07 11:41 20.70000 112.60490 37048 ft 479 kts 252°
2026-05-07 11:42 20.68890 112.57142 37282 ft 478 kts 253°
2026-05-07 11:42 20.67779 112.53794 37530 ft 478 kts 253°
2026-05-07 11:42 20.66671 112.50456 37750 ft 477 kts 253°
2026-05-07 11:42 20.65577 112.47164 37970 ft 476 kts 253°
2026-05-07 11:43 20.64469 112.43834 38195 ft 476 kts 253°
2026-05-07 11:43 20.63361 112.40501 38371 ft 476 kts 253°
2026-05-07 11:43 20.62254 112.37177 38573 ft 476 kts 253°
2026-05-07 11:43 20.61145 112.33850 38730 ft 475 kts 253°
2026-05-07 11:44 20.60037 112.30529 38893 ft 475 kts 253°
2026-05-07 11:44 20.58930 112.27212 39038 ft 474 kts 253°
2026-05-07 11:44 20.57855 112.23885 39175 ft 473 kts 256°
2026-05-07 11:44 20.57093 112.20482 39306 ft 470 kts 263°
2026-05-07 11:45 20.56771 112.17021 39434 ft 468 kts 271°
2026-05-07 11:45 20.56930 112.13566 39553 ft 466 kts 279°
2026-05-07 11:45 20.57578 112.10192 39649 ft 464 kts 287°
2026-05-07 11:45 20.58694 112.06963 39750 ft 464 kts 294°
2026-05-07 11:46 20.60024 112.03830 39876 ft 463 kts 295°
2026-05-07 11:46 20.62841 111.97646 39997 ft 463 kts 296°
2026-05-07 11:47 20.65685 111.91477 39998 ft 463 kts 296°
2026-05-07 11:47 20.68496 111.85296 39997 ft 463 kts 296°
2026-05-07 11:48 20.71286 111.79105 39997 ft 463 kts 296°
2026-05-07 11:48 20.74073 111.72904 39995 ft 463 kts 296°
2026-05-07 11:49 20.76386 111.67749 39997 ft 463 kts 296°
2026-05-07 11:49 20.79170 111.61544 39997 ft 463 kts 296°
2026-05-07 11:50 20.81678 111.55212 39997 ft 463 kts 287°
2026-05-07 11:50 20.82616 111.48414 39997 ft 465 kts 270°
2026-05-07 11:51 20.81540 111.41588 40003 ft 470 kts 255°
2026-05-07 11:51 20.79414 111.34973 39992 ft 472 kts 252°
2026-05-07 11:52 20.77139 111.28392 39995 ft 472 kts 252°
2026-05-07 11:52 20.74880 111.21809 39995 ft 472 kts 252°
2026-05-07 11:53 20.72649 111.15218 39995 ft 472 kts 252°
2026-05-07 11:53 20.70426 111.08624 39991 ft 472 kts 252°
2026-05-07 11:54 20.68202 111.02029 39993 ft 472 kts 252°
2026-05-07 11:54 20.65972 110.95435 39988 ft 472 kts 252°
2026-05-07 11:55 20.63738 110.88840 39989 ft 472 kts 252°
2026-05-07 11:55 20.61536 110.82293 39983 ft 472 kts 252°
2026-05-07 11:56 20.59325 110.75691 39984 ft 472 kts 253°
2026-05-07 11:56 20.57109 110.69094 39989 ft 472 kts 253°
2026-05-07 11:57 20.54888 110.62500 39989 ft 472 kts 253°
2026-05-07 11:57 20.52662 110.55907 39983 ft 472 kts 253°
2026-05-07 11:58 20.50041 110.49465 39987 ft 477 kts 242°
2026-05-07 11:58 20.46147 110.43707 39991 ft 480 kts 234°
2026-05-07 11:59 20.41945 110.38186 39987 ft 480 kts 233°
2026-05-07 11:59 20.37697 110.32701 39987 ft 480 kts 233°
2026-05-07 12:00 20.33465 110.27207 39988 ft 479 kts 234°
2026-05-07 12:00 20.29246 110.21705 39984 ft 479 kts 234°
2026-05-07 12:01 20.25080 110.16165 39975 ft 479 kts 235°
2026-05-07 12:01 20.20929 110.10591 39981 ft 481 kts 234°
2026-05-07 12:02 20.16766 110.05023 39973 ft 481 kts 234°
2026-05-07 12:02 20.12592 109.99462 39973 ft 481 kts 234°
2026-05-07 12:03 20.08415 109.93907 39970 ft 481 kts 234°
2026-05-07 12:03 20.04235 109.88354 39969 ft 481 kts 234°
2026-05-07 12:04 20.00055 109.82805 39973 ft 481 kts 234°
2026-05-07 12:04 19.95872 109.77256 39965 ft 482 kts 234°
2026-05-07 12:05 19.91679 109.71699 39969 ft 482 kts 234°
2026-05-07 12:05 19.87480 109.66141 39966 ft 482 kts 234°
2026-05-07 12:06 19.83311 109.60627 39965 ft 482 kts 234°
2026-05-07 12:06 19.79109 109.55076 39970 ft 482 kts 234°
2026-05-07 12:07 19.74909 109.49530 39966 ft 482 kts 234°
2026-05-07 12:07 19.70703 109.43984 39964 ft 482 kts 234°
2026-05-07 12:08 19.66499 109.38443 39963 ft 482 kts 234°
2026-05-07 12:08 19.62293 109.32907 39969 ft 482 kts 234°
2026-05-07 12:09 19.58086 109.27374 39972 ft 482 kts 234°
2026-05-07 12:09 19.53880 109.21848 39971 ft 482 kts 234°
2026-05-07 12:10 19.49663 109.16325 39974 ft 482 kts 233°
2026-05-07 12:10 19.45421 109.10823 39970 ft 482 kts 233°
2026-05-07 12:11 19.41178 109.05333 39972 ft 481 kts 233°
2026-05-07 12:11 19.36943 108.99852 39977 ft 481 kts 233°
2026-05-07 12:12 19.32708 108.94374 39973 ft 481 kts 233°
2026-05-07 12:12 19.28473 108.88898 39978 ft 481 kts 233°
2026-05-07 12:13 19.24235 108.83426 39970 ft 481 kts 233°
2026-05-07 12:13 19.19996 108.77957 39974 ft 481 kts 233°
2026-05-07 12:14 19.15758 108.72486 39974 ft 480 kts 233°
2026-05-07 12:14 19.11517 108.67017 39972 ft 482 kts 233°
2026-05-07 12:15 19.07289 108.61573 39970 ft 483 kts 233°
2026-05-07 12:15 19.03027 108.56091 39967 ft 483 kts 233°
2026-05-07 12:16 18.98765 108.50614 39967 ft 483 kts 233°
2026-05-07 12:16 18.94499 108.45136 39965 ft 483 kts 233°
2026-05-07 12:17 18.90232 108.39661 39962 ft 482 kts 233°
2026-05-07 12:17 18.85971 108.34199 39962 ft 482 kts 233°
2026-05-07 12:18 18.81705 108.28736 39954 ft 483 kts 233°
2026-05-07 12:18 18.77436 108.23274 39972 ft 483 kts 233°
2026-05-07 12:19 18.73164 108.17812 39970 ft 483 kts 233°
2026-05-07 12:19 18.68888 108.12351 39951 ft 483 kts 233°
2026-05-07 12:20 18.64613 108.06895 39969 ft 483 kts 233°
2026-05-07 12:20 18.60335 108.01440 39968 ft 483 kts 233°
2026-05-07 12:21 18.56056 107.95987 39967 ft 483 kts 233°
2026-05-07 12:21 18.51773 107.90536 39964 ft 483 kts 233°
2026-05-07 12:22 18.47489 107.85088 39958 ft 483 kts 233°
2026-05-07 12:22 18.43202 107.79641 39958 ft 483 kts 233°
2026-05-07 12:23 18.38916 107.74200 39955 ft 483 kts 233°
2026-05-07 12:23 18.34673 107.68735 39958 ft 480 kts 236°
2026-05-07 12:24 18.30966 107.62909 39954 ft 479 kts 239°
2026-05-07 12:24 18.27385 107.57002 39952 ft 478 kts 240°
2026-05-07 12:25 18.23834 107.51097 39956 ft 477 kts 240°
2026-05-07 12:25 18.20278 107.45204 39954 ft 477 kts 240°
2026-05-07 12:26 18.16715 107.39319 39954 ft 477 kts 240°
2026-05-07 12:26 18.13169 107.33473 39954 ft 477 kts 240°
2026-05-07 12:27 18.09599 107.27592 39953 ft 477 kts 240°
2026-05-07 12:27 18.06024 107.21714 39954 ft 477 kts 240°
2026-05-07 12:28 18.02443 107.15837 39956 ft 477 kts 240°
2026-05-07 12:28 17.98863 107.09962 39954 ft 477 kts 240°
2026-05-07 12:29 17.95282 107.04089 39951 ft 477 kts 240°
2026-05-07 12:29 17.91693 106.98212 39951 ft 479 kts 240°
2026-05-07 12:30 17.88095 106.92327 39957 ft 479 kts 240°
2026-05-07 12:30 17.84507 106.86441 39957 ft 479 kts 240°
2026-05-07 12:31 17.80931 106.80545 39956 ft 479 kts 240°
2026-05-07 12:31 17.77351 106.74653 39957 ft 479 kts 240°
2026-05-07 12:32 17.73766 106.68764 39953 ft 479 kts 239°
2026-05-07 12:32 17.70171 106.62866 39961 ft 480 kts 239°
2026-05-07 12:33 17.64755 106.54014 39962 ft 481 kts 239°
2026-05-07 12:33 17.61138 106.48116 39965 ft 481 kts 239°
2026-05-07 12:34 17.57519 106.42219 39973 ft 481 kts 239°
2026-05-07 12:34 17.53923 106.36365 39974 ft 481 kts 239°
2026-05-07 12:35 17.50300 106.30471 39975 ft 481 kts 239°
2026-05-07 12:35 17.46673 106.24577 39985 ft 481 kts 239°
2026-05-07 12:36 17.43043 106.18684 39987 ft 482 kts 239°
2026-05-07 12:36 17.39999 106.13745 39984 ft 481 kts 239°
2026-05-07 12:37 17.36391 106.07897 39985 ft 481 kts 239°
2026-05-07 12:37 17.32793 106.01992 39981 ft 481 kts 240°
2026-05-07 12:38 17.29222 105.96068 39981 ft 481 kts 240°
2026-05-07 12:38 17.25651 105.90158 39975 ft 480 kts 239°
2026-05-07 12:39 17.22073 105.84255 39969 ft 480 kts 239°
2026-05-07 12:39 17.18492 105.78358 39954 ft 480 kts 239°
2026-05-07 12:40 17.14907 105.72460 39958 ft 481 kts 239°
2026-05-07 12:40 17.11321 105.66564 39958 ft 481 kts 239°
2026-05-07 12:41 17.07725 105.60656 39952 ft 482 kts 239°
2026-05-07 12:41 17.04118 105.54735 39954 ft 483 kts 239°
2026-05-07 12:42 17.00506 105.48814 39949 ft 483 kts 239°
2026-05-07 12:42 16.96893 105.42895 39950 ft 483 kts 239°
2026-05-07 12:43 16.93279 105.36978 39950 ft 483 kts 239°
2026-05-07 12:43 16.89663 105.31064 39950 ft 483 kts 239°
2026-05-07 12:44 16.86046 105.25154 39949 ft 483 kts 239°
2026-05-07 12:44 16.82417 105.19243 39948 ft 484 kts 239°
2026-05-07 12:45 16.78785 105.13326 39948 ft 485 kts 239°
2026-05-07 12:45 16.75143 105.07396 39948 ft 485 kts 239°
2026-05-07 12:46 16.71497 105.01469 39945 ft 485 kts 239°
2026-05-07 12:46 16.67850 104.95545 39965 ft 485 kts 239°
2026-05-07 12:47 16.64202 104.89623 39971 ft 486 kts 239°
2026-05-07 12:47 16.60537 104.83680 39983 ft 488 kts 239°
2026-05-07 12:48 16.56890 104.77712 39980 ft 487 kts 242°
2026-05-07 12:48 16.53856 104.71415 39984 ft 486 kts 246°
2026-05-07 12:49 16.51002 104.65036 39984 ft 487 kts 247°
2026-05-07 12:49 16.48176 104.58641 39966 ft 491 kts 247°
2026-05-07 12:50 16.45310 104.52184 39957 ft 491 kts 247°
2026-05-07 12:50 16.42433 104.45731 39938 ft 491 kts 247°
2026-05-07 12:51 16.39552 104.39282 39933 ft 491 kts 247°
2026-05-07 12:51 16.36669 104.32837 39934 ft 491 kts 247°
2026-05-07 12:52 16.33784 104.26392 39924 ft 491 kts 247°
2026-05-07 12:52 16.30895 104.19954 39930 ft 491 kts 247°
2026-05-07 12:53 16.28009 104.13515 39927 ft 491 kts 247°
2026-05-07 12:53 16.25121 104.07075 39924 ft 491 kts 247°
2026-05-07 12:54 16.22229 104.00637 39926 ft 491 kts 247°
2026-05-07 12:54 16.19330 103.94189 39923 ft 493 kts 247°
2026-05-07 12:55 16.16419 103.87723 39904 ft 494 kts 247°
2026-05-07 12:55 16.13504 103.81256 39901 ft 493 kts 247°
2026-05-07 12:56 16.10064 103.75078 39903 ft 496 kts 237°
2026-05-07 12:56 16.05985 103.69293 39902 ft 497 kts 235°
2026-05-07 12:57 16.01797 103.63572 39908 ft 497 kts 234°
2026-05-07 12:57 15.97605 103.57860 39915 ft 497 kts 234°
2026-05-07 12:58 15.93424 103.52142 39921 ft 497 kts 234°
2026-05-07 12:58 15.89251 103.46423 39934 ft 495 kts 235°
2026-05-07 12:59 15.85093 103.40728 39935 ft 494 kts 235°
2026-05-07 12:59 15.80938 103.35040 39940 ft 494 kts 235°
2026-05-07 13:00 15.76779 103.29359 39945 ft 494 kts 235°
2026-05-07 13:00 15.72624 103.23674 39945 ft 494 kts 235°
2026-05-07 13:01 15.68468 103.17994 39942 ft 494 kts 235°
2026-05-07 13:01 15.64310 103.12317 39948 ft 494 kts 234°
2026-05-07 13:02 15.60178 103.06681 39954 ft 494 kts 234°
2026-05-07 13:02 15.56021 103.01019 39953 ft 493 kts 234°
2026-05-07 13:03 15.51868 102.95364 39954 ft 493 kts 234°
2026-05-07 13:03 15.47712 102.89708 39956 ft 493 kts 234°
2026-05-07 13:04 15.43556 102.84056 39953 ft 493 kts 234°
2026-05-07 13:04 15.39398 102.78408 39953 ft 493 kts 234°
2026-05-07 13:05 15.35239 102.72761 39953 ft 493 kts 234°
2026-05-07 13:05 15.31084 102.67123 39953 ft 492 kts 234°
2026-05-07 13:06 15.26928 102.61490 39955 ft 492 kts 234°
2026-05-07 13:06 15.22768 102.55855 39953 ft 493 kts 234°
2026-05-07 13:07 15.18603 102.50217 39948 ft 493 kts 234°
2026-05-07 13:07 15.14440 102.44587 39940 ft 493 kts 234°
2026-05-07 13:08 15.10268 102.38956 39936 ft 493 kts 234°
2026-05-07 13:08 15.06121 102.33363 39931 ft 493 kts 234°
2026-05-07 13:09 15.01939 102.27729 39929 ft 494 kts 234°
2026-05-07 13:09 14.97758 102.22099 39929 ft 494 kts 234°
2026-05-07 13:10 14.93581 102.16464 39944 ft 493 kts 235°
2026-05-07 13:10 14.90216 102.10324 39951 ft 490 kts 246°
2026-05-07 13:11 14.87429 102.03890 39956 ft 490 kts 248°
2026-05-07 13:11 14.84739 101.97417 39959 ft 490 kts 248°
2026-05-07 13:12 14.82043 101.90942 39959 ft 490 kts 248°
2026-05-07 13:12 14.79333 101.84480 39964 ft 490 kts 248°
2026-05-07 13:13 14.76612 101.78022 39964 ft 490 kts 248°
2026-05-07 13:13 14.73888 101.71566 39968 ft 490 kts 248°
2026-05-07 13:14 14.71162 101.65108 39968 ft 491 kts 248°
2026-05-07 13:14 14.68431 101.58642 39964 ft 492 kts 248°
2026-05-07 13:15 14.65694 101.52170 39964 ft 492 kts 248°
2026-05-07 13:15 14.62958 101.45704 39975 ft 491 kts 248°
2026-05-07 13:16 14.60223 101.39251 39970 ft 491 kts 247°
2026-05-07 13:16 14.57485 101.32796 39970 ft 491 kts 247°
2026-05-07 13:17 14.54767 101.26392 39959 ft 491 kts 247°
2026-05-07 13:17 14.51575 101.20161 39962 ft 493 kts 235°
2026-05-07 13:18 14.46975 101.14915 39962 ft 494 kts 225°
2026-05-07 13:18 14.41969 101.10047 39961 ft 495 kts 223°
2026-05-07 13:19 14.36904 101.05238 39959 ft 495 kts 223°
2026-05-07 13:19 14.31853 101.00417 39951 ft 495 kts 224°
2026-05-07 13:20 14.26818 100.95581 39951 ft 494 kts 224°
2026-05-07 13:20 14.21792 100.90746 39951 ft 494 kts 224°
2026-05-07 13:21 14.16765 100.85913 39943 ft 494 kts 224°
2026-05-07 13:21 14.11737 100.81084 39942 ft 494 kts 224°
2026-05-07 13:22 14.06707 100.76256 39945 ft 494 kts 224°
2026-05-07 13:22 14.01672 100.71428 39953 ft 494 kts 224°
2026-05-07 13:23 13.97491 100.67420 39957 ft 494 kts 224°
2026-05-07 13:23 13.92617 100.62437 39957 ft 494 kts 232°
2026-05-07 13:24 13.89123 100.56415 39957 ft 490 kts 250°
2026-05-07 13:24 13.87372 100.49655 39955 ft 490 kts 259°
2026-05-07 13:25 13.86082 100.42762 39953 ft 491 kts 261°
2026-05-07 13:25 13.84840 100.35856 39951 ft 491 kts 261°
2026-05-07 13:26 13.83562 100.28958 39948 ft 491 kts 260°
2026-05-07 13:26 13.82258 100.22066 39945 ft 491 kts 260°
2026-05-07 13:27 13.80946 100.15176 39945 ft 491 kts 260°
2026-05-07 13:27 13.79632 100.08287 39945 ft 491 kts 260°
2026-05-07 13:28 13.78319 100.01399 39945 ft 491 kts 259°
2026-05-07 13:28 13.77004 99.94513 39945 ft 490 kts 259°
2026-05-07 13:29 13.75688 99.87629 39945 ft 491 kts 259°
2026-05-07 13:29 13.74369 99.80747 39945 ft 490 kts 259°
2026-05-07 13:30 13.73050 99.73872 39946 ft 490 kts 259°
2026-05-07 13:30 13.71731 99.67008 39954 ft 489 kts 259°
2026-05-07 13:31 13.70410 99.60146 39953 ft 489 kts 259°
2026-05-07 13:31 13.69086 99.53275 39964 ft 490 kts 259°
2026-05-07 13:32 13.67760 99.46409 39962 ft 489 kts 259°
2026-05-07 13:32 13.66440 99.39583 39962 ft 491 kts 259°
2026-05-07 13:33 13.65106 99.32697 39972 ft 491 kts 259°
2026-05-07 13:33 13.63769 99.25806 39973 ft 491 kts 259°
2026-05-07 13:34 13.61762 99.15471 39987 ft 491 kts 259°
2026-05-07 13:35 13.60425 99.08586 39998 ft 491 kts 259°
2026-05-07 13:35 13.59079 99.01688 40000 ft 493 kts 259°
2026-05-07 13:36 13.57729 98.94774 39997 ft 493 kts 259°
2026-05-07 13:36 13.56378 98.87864 39997 ft 493 kts 259°
2026-05-07 13:37 13.55025 98.80949 39996 ft 493 kts 259°
2026-05-07 13:37 13.53670 98.74038 39994 ft 493 kts 259°
2026-05-07 13:38 13.52313 98.67126 39999 ft 494 kts 259°
2026-05-07 13:38 13.50952 98.60202 39981 ft 495 kts 259°
2026-05-07 13:39 13.49588 98.53278 39983 ft 495 kts 259°
2026-05-07 13:39 13.48224 98.46350 39962 ft 495 kts 259°
2026-05-07 13:40 13.46853 98.39423 39962 ft 495 kts 259°
2026-05-07 13:40 13.45488 98.32544 39956 ft 495 kts 259°
2026-05-07 13:41 13.44110 98.25602 39955 ft 497 kts 259°
2026-05-07 13:41 13.42725 98.18642 39956 ft 497 kts 259°
2026-05-07 13:42 13.41340 98.11682 39956 ft 497 kts 259°
2026-05-07 13:42 13.39958 98.04728 39956 ft 497 kts 259°
2026-05-07 13:43 13.38571 97.97770 39956 ft 497 kts 259°
2026-05-07 13:43 13.37183 97.90819 39959 ft 496 kts 258°
2026-05-07 13:44 13.35796 97.83885 39952 ft 495 kts 259°
2026-05-07 13:44 13.34409 97.76964 39951 ft 495 kts 259°
2026-05-07 13:45 13.33021 97.70041 39950 ft 495 kts 259°
2026-05-07 13:45 13.31631 97.63126 39951 ft 495 kts 258°
2026-05-07 13:46 13.30239 97.56205 39950 ft 495 kts 258°
2026-05-07 13:46 13.28845 97.49287 39951 ft 495 kts 258°
2026-05-07 13:47 13.27449 97.42372 39950 ft 494 kts 258°
2026-05-07 13:47 13.26052 97.35461 39951 ft 495 kts 258°
2026-05-07 13:48 13.24653 97.28548 39952 ft 495 kts 258°
2026-05-07 13:48 13.23252 97.21636 39951 ft 494 kts 258°
2026-05-07 13:49 13.21850 97.14725 39952 ft 495 kts 258°
2026-05-07 13:49 13.20455 97.07863 39951 ft 495 kts 258°
2026-05-07 13:50 13.19038 97.00904 39954 ft 495 kts 258°
2026-05-07 13:50 13.17640 96.94046 39951 ft 495 kts 258°
2026-05-07 13:51 13.16231 96.87140 39950 ft 494 kts 258°
2026-05-07 13:51 13.14819 96.80231 39951 ft 495 kts 258°
2026-05-07 13:52 13.13405 96.73325 39954 ft 494 kts 258°
2026-05-07 13:52 13.11990 96.66423 39953 ft 494 kts 258°
2026-05-07 13:53 13.10572 96.59520 39954 ft 495 kts 258°
2026-05-07 13:53 13.09153 96.52618 39954 ft 494 kts 258°
2026-05-07 13:54 13.07732 96.45715 39955 ft 495 kts 258°
2026-05-07 13:54 13.06306 96.38797 39953 ft 497 kts 258°
2026-05-07 13:55 13.04875 96.31868 39954 ft 497 kts 258°
2026-05-07 13:55 13.03444 96.24945 39953 ft 496 kts 258°
2026-05-07 13:56 13.02011 96.18023 39952 ft 496 kts 258°
2026-05-07 13:56 13.00577 96.11108 39956 ft 496 kts 258°
2026-05-07 13:57 12.99141 96.04191 39954 ft 496 kts 258°
2026-05-07 13:57 12.97702 95.97266 39953 ft 497 kts 258°
2026-05-07 13:58 12.96259 95.90337 39953 ft 497 kts 258°
2026-05-07 13:58 12.94815 95.83410 39953 ft 497 kts 258°
2026-05-07 13:59 12.93369 95.76485 39953 ft 497 kts 258°
2026-05-07 13:59 12.91922 95.69563 39954 ft 497 kts 258°
2026-05-07 14:00 12.90474 95.62651 39955 ft 495 kts 258°
2026-05-07 14:00 12.89027 95.55746 39956 ft 495 kts 258°
2026-05-07 14:01 12.87496 95.48866 39959 ft 496 kts 253°
2026-05-07 14:01 12.84955 95.42304 39957 ft 496 kts 246°
2026-05-07 14:02 12.82122 95.35919 39956 ft 496 kts 245°
2026-05-07 14:02 12.79216 95.29512 39956 ft 496 kts 245°
2026-05-07 14:03 12.76316 95.23097 39956 ft 496 kts 245°
2026-05-07 14:03 12.73430 95.16680 39957 ft 496 kts 245°
2026-05-07 14:04 12.70545 95.10260 39957 ft 496 kts 245°
2026-05-07 14:04 12.67654 95.03831 39956 ft 497 kts 245°
2026-05-07 14:05 12.64761 94.97403 39955 ft 497 kts 245°
2026-05-07 14:05 12.61866 94.90976 39957 ft 497 kts 245°
2026-05-07 14:06 12.58963 94.84538 39957 ft 498 kts 245°
2026-05-07 14:06 12.56057 94.78099 39957 ft 498 kts 245°
2026-05-07 14:07 12.53150 94.71660 39959 ft 498 kts 245°
2026-05-07 14:07 12.50240 94.65221 39959 ft 498 kts 245°
2026-05-07 14:08 12.47331 94.58787 39960 ft 498 kts 245°
2026-05-07 14:08 12.44423 94.52359 39958 ft 497 kts 245°
2026-05-07 14:09 12.41516 94.45941 39961 ft 497 kts 245°
2026-05-07 14:09 12.38608 94.39527 39961 ft 497 kts 245°
2026-05-07 14:10 12.35722 94.33106 39954 ft 496 kts 245°
2026-05-07 14:10 12.32851 94.26695 39959 ft 496 kts 245°
2026-05-07 14:11 12.30460 94.21366 39959 ft 496 kts 244°
2026-05-07 14:11 12.27582 94.14967 39958 ft 494 kts 245°
2026-05-07 14:12 12.24721 94.08611 39959 ft 492 kts 245°
2026-05-07 14:12 12.21682 94.02354 39922 ft 491 kts 239°
2026-05-07 14:13 12.17759 93.96623 39679 ft 495 kts 228°
2026-05-07 14:13 12.15309 93.94147 39469 ft 497 kts 220°
2026-05-07 14:13 12.12509 93.92057 39288 ft 499 kts 211°
2026-05-07 14:13 12.09410 93.90471 39127 ft 500 kts 200°
2026-05-07 14:14 12.06074 93.89482 38975 ft 500 kts 189°
2026-05-07 14:14 12.02618 93.89168 38833 ft 499 kts 178°
2026-05-07 14:14 11.99173 93.89584 38714 ft 499 kts 167°
2026-05-07 14:14 11.95946 93.90738 38600 ft 500 kts 155°
2026-05-07 14:15 11.93010 93.92630 38465 ft 502 kts 141°
2026-05-07 14:15 11.90568 93.95189 38211 ft 506 kts 127°
2026-05-07 14:15 11.88795 93.98291 37934 ft 509 kts 113°
2026-05-07 14:15 11.87828 94.01772 37669 ft 512 kts 98°
2026-05-07 14:16 11.87776 94.05409 37419 ft 515 kts 83°
2026-05-07 14:16 11.88673 94.08942 37242 ft 516 kts 68°
2026-05-07 14:16 11.90466 94.12097 37127 ft 516 kts 52°
2026-05-07 14:16 11.93024 94.14640 37084 ft 514 kts 36°
2026-05-07 14:17 11.96148 94.16385 37047 ft 513 kts 20°
2026-05-07 14:17 11.99603 94.17219 37041 ft 511 kts
2026-05-07 14:17 12.03136 94.17097 37037 ft 509 kts 350°
2026-05-07 14:17 12.06506 94.16036 36993 ft 508 kts 334°
2026-05-07 14:18 12.09486 94.14108 36940 ft 508 kts 319°
2026-05-07 14:18 12.11874 94.11466 36868 ft 507 kts 304°
2026-05-07 14:18 12.13535 94.08307 36896 ft 504 kts 289°
2026-05-07 14:18 12.14359 94.04850 36940 ft 501 kts 275°
2026-05-07 14:19 12.14295 94.01310 36925 ft 498 kts 260°
2026-05-07 14:19 12.13341 93.97919 36828 ft 498 kts 245°
2026-05-07 14:19 12.11552 93.94900 36681 ft 499 kts 230°
2026-05-07 14:19 12.09038 93.92469 36530 ft 499 kts 214°
2026-05-07 14:20 12.05970 93.90823 36413 ft 499 kts 198°
2026-05-07 14:20 12.02584 93.90104 36344 ft 498 kts 182°
2026-05-07 14:20 11.99145 93.90383 36321 ft 497 kts 166°
2026-05-07 14:20 11.95938 93.91666 36286 ft 496 kts 149°
2026-05-07 14:21 11.93253 93.93868 36176 ft 498 kts 132°
2026-05-07 14:21 11.91341 93.96821 35945 ft 503 kts 114°
2026-05-07 14:21 11.90407 94.00264 35690 ft 508 kts 96°
2026-05-07 14:21 11.90574 94.03861 35513 ft 510 kts 78°
2026-05-07 14:22 11.91838 94.07234 35437 ft 511 kts 60°
2026-05-07 14:22 11.94068 94.10033 35474 ft 509 kts 41°
2026-05-07 14:22 11.97021 94.11983 35602 ft 506 kts 24°
2026-05-07 14:22 12.00344 94.12919 35733 ft 503 kts
2026-05-07 14:23 12.03824 94.12826 35819 ft 501 kts 349°
2026-05-07 14:23 12.07116 94.11719 35834 ft 500 kts 333°
2026-05-07 14:23 12.09967 94.09695 35753 ft 501 kts 316°
2026-05-07 14:23 12.12154 94.06929 35620 ft 503 kts 300°
2026-05-07 14:24 12.13507 94.03644 35556 ft 503 kts 283°
2026-05-07 14:24 12.13911 94.00119 35606 ft 499 kts 267°
2026-05-07 14:24 12.13343 93.96646 35690 ft 495 kts 251°
2026-05-07 14:24 12.11859 93.93500 35737 ft 492 kts 234°
2026-05-07 14:25 12.09576 93.90922 35686 ft 491 kts 218°
2026-05-07 14:25 12.07705 93.89624 35608 ft 492 kts 207°
2026-05-07 14:25 12.03368 93.88213 35419 ft 493 kts 185°